CT1OY Oeiras PT current weather conditions

sailwx.info

Wind from 311 at 6 knots gusting 18

Air temperature 19.4° C
Dewpoint 16.1° C

Last reported at 2014-Jul-23 19:25 UTC.
Time now 2014-Jul-23 20:11 UTC

Location: N 38°44' W 009°17'.
View on Google Maps.

See reports from other nearby stations

  
Tides and Currents Weather Stations Pressure Air Temp Water Temp Dewpoint Dewpoint Depression Visibility Wind Speed Wind Dir Waves Ship Positions
date/time (UTC)wind fromknots sea level pressurealtimeterstation pressurevisibilityair tempwater tempwave heightnotes
2014-Jul-23 19:25 311 6 gusting 18 19.4
2014-Jul-23 18:45 307 6 gusting 18 20.0
2014-Jul-23 18:35 284 4 gusting 20 20.6
2014-Jul-23 18:05 338 4 gusting 19 21.1
2014-Jul-23 17:45 338 5 gusting 15 21.1
2014-Jul-23 17:35 338 6 gusting 15 21.1
2014-Jul-23 17:15 302 5 gusting 16 21.1
2014-Jul-23 16:55 333 0 gusting 17 22.2
2014-Jul-23 16:45 309 4 gusting 13 22.2
2014-Jul-23 16:25 056 8 gusting 20 22.2
2014-Jul-23 16:05 333 3 gusting 19 22.2
2014-Jul-23 15:45 335 10 gusting 20 22.2
2014-Jul-23 15:15 264 5 gusting 16 22.2
2014-Jul-23 14:55 284 5 gusting 14 22.8
2014-Jul-23 14:35 267 11 gusting 15 22.8
2014-Jul-23 14:25 280 5 gusting 20 22.2
2014-Jul-23 14:05 328 8 gusting 19 22.8
2014-Jul-23 13:55 222 0 gusting 13 22.8
2014-Jul-23 13:25 270 8 gusting 13 23.3
2014-Jul-23 13:15 288 3 gusting 11 23.3
2014-Jul-23 13:05 253 1 gusting 13 22.8
2014-Jul-23 12:55 299 2 gusting 16 22.8
2014-Jul-23 12:35 304 1 gusting 15 22.8
2014-Jul-23 12:05 310 8 gusting 15 22.2
2014-Jul-23 11:55 335 6 gusting 13 22.2
2014-Jul-23 11:45 286 1 gusting 10 22.2
2014-Jul-23 11:35 345 3 gusting 13 21.7
2014-Jul-23 11:25 297 6 22.2
2014-Jul-23 10:45 310 21.1
2014-Jul-23 10:35 310 1 gusting 13 21.1
2014-Jul-23 10:25 335 0 gusting 18 20.6
2014-Jul-23 10:05 063 6 gusting 12 20.6
2014-Jul-23 09:45 303 1 gusting 12 20.6
2014-Jul-23 09:05 327 6 gusting 13 20.0
2014-Jul-23 08:55 006 4 gusting 15 19.4
2014-Jul-23 08:45 319 3 gusting 11 19.4
2014-Jul-23 08:35 027 4 gusting 12 18.9
2014-Jul-23 08:05 288 4 gusting 13 18.9
2014-Jul-23 07:55 049 4 gusting 14 18.3
2014-Jul-23 07:15 281 5 gusting 11 18.3
2014-Jul-23 07:05 238 5 gusting 13 18.3
2014-Jul-23 06:55 328 2 gusting 15 18.3
2014-Jul-23 06:45 315 6 gusting 13 18.3
2014-Jul-23 06:35 049 2 gusting 13 17.8
2014-Jul-23 06:25 307 5 gusting 16 17.8
2014-Jul-23 06:15 286 3 gusting 17 17.8
2014-Jul-23 05:45 304 12 gusting 15 17.8
2014-Jul-23 05:35 299 8 gusting 17 17.8
2014-Jul-23 05:25 295 5 gusting 12 17.8
2014-Jul-23 04:55 302 7 gusting 13 17.8
2014-Jul-23 04:45 287 4 gusting 16 17.2
2014-Jul-23 04:35 281 7 gusting 17 17.2
2014-Jul-23 04:25 287 8 gusting 17 17.2
2014-Jul-23 04:05 352 7 gusting 18 17.2
2014-Jul-23 03:25 283 6 gusting 15 17.2
2014-Jul-23 03:15 301 5 gusting 15 17.2
2014-Jul-23 03:05 287 5 gusting 16 17.2
2014-Jul-23 02:55 008 6 gusting 19 17.2
2014-Jul-23 02:45 019 4 gusting 14 17.2
2014-Jul-23 02:35 008 1 gusting 13 17.2
2014-Jul-23 02:25 333 4 gusting 13 17.2
2014-Jul-23 01:25 316 13 gusting 13 17.8
2014-Jul-23 01:15 295 8 gusting 13 17.8
2014-Jul-23 01:05 295 2 gusting 14 17.8
2014-Jul-23 00:45 319 6 gusting 17 17.8
2014-Jul-23 00:35 279 4 gusting 13 17.8
2014-Jul-23 00:25 305 6 gusting 14 17.8
2014-Jul-23 00:15 336 4 gusting 16 17.8
2014-Jul-22 23:55 269 6 gusting 17 17.8
2014-Jul-22 23:45 249 6 gusting 13 17.8
2014-Jul-22 23:25 322 7 gusting 16 17.8
2014-Jul-22 23:05 335 4 gusting 15 17.8
2014-Jul-22 22:55 269 5 gusting 17 17.8
2014-Jul-22 22:35 288 3 gusting 13 17.8
2014-Jul-22 22:25 320 3 gusting 18 17.8
2014-Jul-22 22:05 023 8 gusting 16 17.8
2014-Jul-22 20:45 302 3 gusting 14 17.8
2014-Jul-22 20:35 278 4 gusting 16 17.8
2014-Jul-22 20:05 290 15 gusting 15 18.3
2014-Jul-22 19:55 281 7 gusting 14 18.3
2014-Jul-22 19:35 287 8 gusting 18 18.9
2014-Jul-22 19:15 310 8 gusting 14 19.4
2014-Jul-22 18:45 295 2 gusting 13 20.0
2014-Jul-22 18:35 347 6 gusting 13 20.6
2014-Jul-22 18:25 311 4 gusting 13 20.6
2014-Jul-22 18:05 309 9 gusting 15 21.1
2014-Jul-22 17:55 291 8 gusting 11 21.1
2014-Jul-22 17:45 327 1 gusting 15 21.1
2014-Jul-22 17:35 328 5 gusting 13 21.7
2014-Jul-22 16:55 309 6 gusting 16 22.2
2014-Jul-22 16:35 311 12 gusting 14 22.2
2014-Jul-22 16:25 330 6 gusting 12 22.8
2014-Jul-22 16:15 345 4 gusting 13 22.2
2014-Jul-22 16:05 005 5 gusting 13 22.2
2014-Jul-22 15:55 008 6 gusting 13 22.2
2014-Jul-22 15:35 285 5 gusting 13 23.3
2014-Jul-22 15:15 269 2 gusting 14 23.3
2014-Jul-22 15:05 267 1 gusting 13 23.9
2014-Jul-22 14:55 282 4 gusting 12 24.4
2014-Jul-22 14:45 295 2 gusting 13 24.4
2014-Jul-22 14:35 295 6 gusting 13 24.4
2014-Jul-22 14:25 263 3 gusting 13 24.4
2014-Jul-22 14:15 331 4 24.4
2014-Jul-22 13:45 283 5 gusting 13 24.4
2014-Jul-22 13:05 313 7 gusting 12 24.4
2014-Jul-22 12:55 281 1 24.4
2014-Jul-22 12:45 315 8 23.9
2014-Jul-22 12:15 004 6 gusting 13 23.9
2014-Jul-22 11:25 295 2 23.9
2014-Jul-22 11:15 290 3 23.3
2014-Jul-22 10:35 262 3 22.8
2014-Jul-22 10:25 337 22.8
2014-Jul-22 09:05 360 3 21.1
2014-Jul-22 08:35 285 2 20.0
2014-Jul-22 08:25 332 2 20.0
2014-Jul-22 08:05 346 4 gusting 11 18.9
2014-Jul-22 07:35 238 3 gusting 10 18.3
2014-Jul-22 07:15 338 8 17.8
2014-Jul-22 06:35 285 12 gusting 12 16.7
2014-Jul-22 06:25 307 2 gusting 16 16.7
2014-Jul-22 05:45 353 6 gusting 15 16.7
2014-Jul-22 05:35 013 9 gusting 13 16.7
2014-Jul-22 05:25 349 9 gusting 13 16.1
2014-Jul-22 05:15 324 3 gusting 11 16.1
2014-Jul-22 04:55 257 11 gusting 11 16.1
2014-Jul-22 04:45 039 3 gusting 13 16.1
2014-Jul-22 04:35 293 9 gusting 11 16.1
2014-Jul-22 04:05 304 4 gusting 12 16.1
2014-Jul-22 03:55 306 8 gusting 15 16.1
2014-Jul-22 03:45 322 6 gusting 14 16.1
2014-Jul-22 03:15 333 2 16.1
2014-Jul-22 02:55 009 5 gusting 10 16.1
2014-Jul-22 02:15 069 5 gusting 11 16.1
2014-Jul-22 01:55 295 0 16.1
2014-Jul-22 01:45 347 5 gusting 10 16.1
2014-Jul-22 01:35 011 3 16.7
2014-Jul-22 01:25 242 4 gusting 10 16.7
2014-Jul-22 01:15 334 3 gusting 10 16.7
2014-Jul-22 01:05 309 2 16.7
2014-Jul-22 00:55 297 2 gusting 11 16.7
2014-Jul-22 00:45 314 2 16.7
2014-Jul-22 00:35 295 3 16.7
2014-Jul-22 00:25 268 0 16.7
2014-Jul-22 00:05 336 4 gusting 13 17.2
2014-Jul-21 23:55 305 4 gusting 13 17.2
2014-Jul-21 23:35 319 6 gusting 12 17.2
2014-Jul-21 23:25 328 10 gusting 13 17.2
2014-Jul-21 23:05 288 11 gusting 13 17.2
2014-Jul-21 22:25 288 4 gusting 13 17.8
2014-Jul-21 21:25 309 6 gusting 13 17.8
2014-Jul-21 21:15 324 6 gusting 14 17.8
2014-Jul-21 21:05 314 2 gusting 13 17.8
2014-Jul-21 20:55 306 3 gusting 13 18.3
2014-Jul-21 20:45 012 8 gusting 13 18.3
2014-Jul-21 20:35 343 3 gusting 12 18.3